Back to catalog

SCOUT X-4 DEB

AliveLEO
NORAD 732·DEBRIS·🇺🇸 United States

Launched Dec 19, 1963 from Vandenberg Space Force Base

Loading…

Next Passes (next 24 hours)

TLE

FreshSource: Space-Track

Epoch: Sep 14, 2026, 21:35 UTC

1 00732U 63053H   26257.89978573  .00005483  00000-0  15642-2 0  9997
2 00732  78.5426 109.8843 0388908 187.8760 171.6186 14.09004751987805

Track SCOUT X-4 DEB in real time with AllMySat

Download on the App Store